Weather in Lynnwood

United States     47°49′16″N   122°18′49″W
temp.,
°C
wind,
m/s
gust,
m/s
humid.,
%
clouds,
%
prec.,
mm/h
press.,
hPa
HPBL,
m
16 may, sun
sun1623:00+10nne11865 0.0 101614
02:00+9ne1193100 0.0 101611
05:00+8nne11955 0.0 101610
08:00+14n01675 0.0 1016259
11:00+21nw22456 0.0 1015862
14:00+23nw22376 0.0 10131035
17:00+23nnw32387 0.0 10111059
20:00+17n366846 0.0 1010169
17 may, mon
mon1723:00+10ese119541 0.0 101233
02:00+10s249484 0.0 1012110
05:00+10s4885100 0.0 1013672
08:00+12s4877100 0.1 1014884
11:00+16ssw6954100 0.1 10131496
14:00+17ssw6849100 0.0 10131744
17:00+19ssw6943100 0.0 10112004
20:00+12ssw61272100 0.0 10121077
18 may, tue
tue1823:00+10ssw51196100 2.3 10121164
02:00+8s611894 1.3 1013938
05:00+7ssw6128213 1.3 1016897
08:00+9ssw586315 0.1 10181044
11:00+14wsw454051 0.3 10182066
14:00+12sw1373100 1.9 10191301
17:00+11nne237393 4.4 1019817
20:00+9ne2587100 0.9 1019193
19 may, wed
wed1923:00+6ne2691100 1.0 1020187
02:00+4ne139276 0.0 101978
05:00+3e119622 0.0 102012
08:00+7ene118286 0.0 1020303
11:00+10nw226963 0.7 10191187
14:00+14nw33384 0.4 10171790
17:00+13nnw44362 0.4 10161419
20:00+10nnw25570 0.0 1016241
20 may, thu
thu2023:00+4e118211 0.0 101811
02:00+3sse119058 0.0 101815
05:00+3se1191100 0.0 101922
08:00+8s2272100 0.0 1019425
11:00+10sw2264100 0.0 1019952
14:00+14e1250100 0.0 10191236
17:00+15nw244433 0.0 10171599
20:00+12nnw12675 0.0 101734